Alpena, MI

11:51 PM EDT on September 25, 2017 (GMT -0400)
Alpena County Regional

Weather History for KAPN - July, 2012

Change the Weather History Date:

Thursday, July 5, 2012

  Actual Average Record
Temperature  
Mean Temperature 79 °F 67 °F  
Max Temperature 91 °F 79 °F 96 °F (1955)
Min Temperature 66 °F 55 °F 37 °F (1972)
Degree Days  
Heating Degree Days 0 2  
Month to date heating degree days 0 10  
Since 1 June heating degree days 84 153  
Since 1 July heating degree days 0 10  
Cooling Degree Days 14 4  
Month to date cooling degree days 56 17  
Year to date cooling degree days 200 86  
Since 1 June cooling degree days 174 73  
Growing Degree Days 28 (Base 50)    
Moisture  
Dew Point 68 °F    
Average Humidity 77    
Maximum Humidity 97    
Minimum Humidity 56    
Precipitation  
Precipitation 0.16 in 0.10 in 2.59 in (2007)
Month to date precipitation 0.34 0.48  
Year to date precipitation 13.47 13.00  
Sea Level Pressure  
Sea Level Pressure 29.88 in    
Wind  
Wind Speed 4 mph (NNW)    
Max Wind Speed 15 mph    
Max Gust Speed 29 mph    
Visibility 10 miles    
Events Rain    
T = Trace of Precipitation, MM = Missing Value Source: NWS Daily Summary

Daily Weather History Graph

Daily Weather History Graph

Search for Another Location

Airport or City:

Trip Planner

Search our weather history database for the weather conditions in past years. The results will help you decide how hot, cold, wet, or windy it might be!

Date:

Astronomy

Jul. 05, 2012 Rise Set
Actual Time 5:53 AM EDT 9:23 PM EDT
Civil Twilight 5:16 AM EDT 10:00 PM EDT
Nautical Twilight 4:28 AM EDT 10:49 PM EDT
Astronomical Twilight 3:25 AM EDT 11:51 PM EDT
Moon 10:30 PM EDT (7/5) 8:12 AM EDT (7/5)
Length of Visible Light 16h 43m
Length of Day
15h 29m
Waning Gibbous, 95% of the Moon is Illuminated
Jul 5
Waning Gibbous
Jul 10
Last Quarter
Jul 19
New
Jul 26
First Quarter
Aug 1
Full

Hourly Weather History & Observations

Time (EDT) Temp. Heat Index Dew Point Humidity Pressure Visibility Wind Dir Wind Speed Gust Speed Precip Events Conditions
12:54 AM 68.0 °F - 64.0 °F 87% 29.87 in 10.0 mi SSE 3.5 mph - N/A   Clear
1:54 AM 69.1 °F - 64.0 °F 84% 29.90 in 10.0 mi West 4.6 mph - N/A   Scattered Clouds
2:54 AM 66.9 °F - 63.0 °F 87% 29.83 in 10.0 mi Calm Calm - N/A   Clear
3:54 AM 69.1 °F - 63.0 °F 81% 29.84 in 10.0 mi WSW 4.6 mph - N/A   Clear
4:54 AM 69.1 °F - 64.0 °F 84% 29.86 in 10.0 mi Calm Calm - N/A   Clear
5:54 AM 69.1 °F - 64.0 °F 84% 29.86 in 10.0 mi Calm Calm - N/A   Scattered Clouds
6:54 AM 69.1 °F - 64.9 °F 87% 29.86 in 10.0 mi SSE 3.5 mph - N/A   Clear
7:54 AM 71.1 °F - 64.9 °F 81% 29.91 in 10.0 mi NNW 4.6 mph - N/A   Mostly Cloudy
8:01 AM 71.6 °F - 64.4 °F 78% 29.93 in 10.0 mi NNW 15.0 mph 19.6 mph N/A   Overcast
8:54 AM 70.0 °F - 68.0 °F 93% 29.92 in 8.0 mi NNE 4.6 mph - 0.07 in Rain Light Rain
9:54 AM 70.0 °F - 68.0 °F 93% 29.93 in 4.0 mi South 5.8 mph - 0.02 in Rain Rain
10:54 AM 71.1 °F - 69.1 °F 93% 29.89 in 8.0 mi ENE 3.5 mph - 0.07 in   Overcast
10:58 AM 71.6 °F - 69.8 °F 94% 29.91 in 8.0 mi NE 3.5 mph - N/A   Overcast
11:54 AM 73.9 °F - 69.1 °F 85% 29.90 in 10.0 mi Calm Calm - N/A   Overcast
12:54 PM 75.9 °F - 70.0 °F 82% 29.89 in 10.0 mi Calm Calm - N/A   Mostly Cloudy
1:54 PM 82.9 °F 87.5 °F 71.1 °F 67% 29.88 in 10.0 mi Variable 3.5 mph - N/A   Mostly Cloudy
2:54 PM 87.1 °F 93.6 °F 72.0 °F 61% 29.88 in 10.0 mi WSW 9.2 mph - N/A   Scattered Clouds
3:54 PM 88.0 °F 93.8 °F 71.1 °F 57% 29.86 in 10.0 mi Variable 5.8 mph - N/A   Scattered Clouds
4:54 PM 89.1 °F 95.0 °F 71.1 °F 55% 29.84 in 10.0 mi Calm Calm - N/A   Clear
5:54 PM 91.0 °F 99.3 °F 73.0 °F 55% 29.83 in 10.0 mi Calm Calm - N/A   Clear
6:54 PM 89.1 °F 99.1 °F 75.0 °F 63% 29.83 in 10.0 mi ENE 5.8 mph - N/A   Partly Cloudy
7:54 PM 86.0 °F 93.0 °F 73.0 °F 65% 29.83 in 10.0 mi East 3.5 mph - N/A   Partly Cloudy
8:54 PM 81.0 °F 84.9 °F 71.1 °F 72% 29.86 in 10.0 mi North 15.0 mph - N/A   Clear
9:54 PM 78.1 °F - 70.0 °F 76% 29.88 in 9.0 mi North 5.8 mph - 0.00 in Rain Light Rain
10:54 PM 75.0 °F - 70.0 °F 84% 29.89 in 10.0 mi West 3.5 mph - 0.00 in   Clear
11:54 PM 73.0 °F - 70.0 °F 90% 29.90 in 10.0 mi West 3.5 mph - N/A   Clear